Regional Weather Roundup
Issued by NWS Kansas City/Pleasant Hill, MO

Home | Current Version | Previous Version | Graphics & Text | Print | Product List | Glossary Off
Versions: 1 2 3 4 5 6 7 8 9 10 11 12 13 14 15 16 17 18 19 20 21 22 23 24 25 26 27 28 29 30 31 32 33 34 35 36 37 38 39 40 41 42 43 44 45 46 47 48 49 50

000
ASUS43 KEAX 150804
RWREAX

WEATHER ROUNDUP FOR EASTERN KANSAS AND NORTHWEST MISSOURI
NATIONAL WEATHER SERVICE KANSAS CITY/PLEASANT HILL MO
300 AM CDT MON SEP 15 2014

KSZ040-057-103>105-MOZ028-029-037-043-150900-
...KANSAS CITY METROPOLITAN AREA...

CITY           SKY/WX    TMP DP  RH WIND       PRES   REMARKS
K.C. INTL      CLOUDY    65  58  78 SE9       30.06F
K.C. DOWNTOWN  CLOUDY    65  57  75 SE6       30.06F
LEES SUMMIT    CLOUDY    61  57  87 CALM      30.09S
OLATHE - IXD   PTCLDY    62  59  90 SE7       30.07F
OLATHE - OJC   PTCLDY    60  57  89 SE6       30.07S
LAWRENCE       CLOUDY    63  59  87 SE8       30.05S

$$

MOZ001>008-011>017-020>025-030>033-038>040-044>046-053-054-150900-
...NORTHERN AND CENTRAL MISSOURI...

CITY           SKY/WX    TMP DP  RH WIND       PRES   REMARKS
ST. JOSEPH     CLOUDY    64  58  80 SE7       30.05F
MOSBY          CLOUDY    61  55  82 SE6       30.07F
WHITEMAN AFB   PTCLDY    57  54  90 SE3       30.09S
CLINTON        MOCLDY    61  55  82 CALM      30.09F
SEDALIA        PTCLDY    57  52  83 SE5       30.11F
WARSAW         NOT AVBL
MARSHALL       CLOUDY    61  55  82 SE3       30.11F
CHILLICOTHE      N/A     64  55  72 CALM      30.10S
MOBERLY        CLOUDY    61  54  77 SE6       30.11F
KIRKSVILLE     CLOUDY    59  54  83 E6        30.12F

$$

MOZ041-047>049-056>058-063>065-088>090-097-150900-
...EASTERN AND SOUTHERN MISSOURI...

CITY           SKY/WX    TMP DP  RH WIND       PRES   REMARKS
ST. LOUIS INTL MOCLDY    61  49  64 SE5       30.16F
SPIRIT OF STL  CLOUDY    56  53  90 CALM      30.14F
COLUMBIA       PTCLDY    58  52  80 SE6       30.13F
JEFFERSON CITY PTCLDY    57  52  83 SE5       30.13S
MEXICO         CLOUDY    61  59  94 CALM      30.13F
ROLLA          PTCLDY    59  50  72 S10       30.12F
LEBANON        MOCLDY    61  54  77 S7        30.13F
OSAGE BEACH    MOCLDY    61  52  72 S6        30.12R
SPRINGFIELD    MOCLDY    65  56  72 S13       30.12F
BRANSON        CLOUDY    64  57  77 S7        30.16F
NEVADA         MOCLDY    64  59  82 S10       30.09F
JOPLIN         CLOUDY    66  60  81 S12       30.11F
WEST PLAINS    MOCLDY    61  50  67 S5        30.18F

$$

IAZ060-094-KSZ022-034>040-054-083-096-NEZ052-066-093-150900-
...KANSAS...SOUTHEAST NEBRASKA AND IOWA...

CITY           SKY/WX    TMP DP  RH WIND       PRES   REMARKS
TOPEKA         PTCLDY    62  60  93 E6        30.03F
MANHATTAN      CLEAR     66  62  87 S5        29.99F
EMPORIA        PTCLDY    64  62  93 S14       30.03R
CHANUTE        MOCLDY    66  62  87 S14       30.07S
WICHITA        MOCLDY    68  61  78 S14       30.03R
OMAHA          CLOUDY    62  57  83 E10       30.05F
LINCOLN        CLOUDY    61  57  87 NE6       30.04F
FALLS CITY     CLOUDY    64  59  83 SE5       30.02S
LAMONI         LGT RAIN  60  55  83 E3        30.09F
DES MOINES     CLOUDY    61  52  72 SE8       30.09F

$$




USA.gov is the U.S. government's official web portal to all federal, state and local government web resources and services.